TimeMDT,TemperatureF,Dew PointF,Humidity,Sea Level PressureIn,VisibilityMPH,Wind Direction,Wind SpeedMPH,Gust SpeedMPH,PrecipitationIn,Events,Conditions,WindDirDegrees,DateUTC
12:52 AM,68.0,57.0,68,29.99,10.0,South,5.8,-,N/A,,Mostly Cloudy,170,2013-08-20 06:52:00
1:52 AM,66.9,57.0,70,29.97,10.0,SSE,5.8,-,N/A,,Scattered Clouds,150,2013-08-20 07:52:00
2:52 AM,66.9,57.0,70,29.95,10.0,East,5.8,-,N/A,,Scattered Clouds,100,2013-08-20 08:52:00
3:52 AM,66.0,55.0,68,29.93,10.0,Calm,Calm,-,N/A,,Scattered Clouds,0,2013-08-20 09:52:00
4:52 AM,66.9,55.0,66,29.94,10.0,Calm,Calm,-,N/A,,Scattered Clouds,0,2013-08-20 10:52:00
5:52 AM,66.0,55.0,68,29.93,10.0,ENE,3.5,-,N/A,,Scattered Clouds,70,2013-08-20 11:52:00
6:52 AM,66.0,57.0,73,29.94,10.0,North,4.6,-,N/A,,Scattered Clouds,350,2013-08-20 12:52:00
7:52 AM,68.0,57.0,68,29.97,10.0,North,5.8,-,N/A,,Partly Cloudy,10,2013-08-20 13:52:00
8:52 AM,71.1,55.9,59,29.99,10.0,Calm,Calm,-,N/A,,Partly Cloudy,0,2013-08-20 14:52:00
9:52 AM,73.0,55.9,55,29.99,10.0,West,4.6,-,N/A,,Partly Cloudy,270,2013-08-20 15:52:00
10:52 AM,75.0,55.9,51,29.98,10.0,Variable,3.5,-,N/A,,Partly Cloudy,0,2013-08-20 16:52:00
11:52 AM,79.0,55.0,44,29.96,10.0,Calm,Calm,-,N/A,,Partly Cloudy,0,2013-08-20 17:52:00
12:52 PM,81.0,55.0,41,29.93,10.0,Variable,5.8,-,N/A,,Partly Cloudy,0,2013-08-20 18:52:00
1:52 PM,84.0,53.1,34,29.90,10.0,South,6.9,-,N/A,,Scattered Clouds,180,2013-08-20 19:52:00
2:52 PM,86.0,50.0,29,29.86,10.0,WSW,6.9,-,N/A,,Scattered Clouds,250,2013-08-20 20:52:00
3:52 PM,88.0,48.9,26,29.84,10.0,Variable,3.5,-,N/A,,Scattered Clouds,0,2013-08-20 21:52:00
4:52 PM,89.1,46.9,23,29.82,10.0,SW,8.1,-,N/A,,Mostly Cloudy,230,2013-08-20 22:52:00
5:38 PM,89.6,48.2,24,30.08,10.0,South,6.9,-,N/A,Thunderstorm,Thunderstorm,170,2013-08-20 23:38:00
5:52 PM,89.1,48.0,24,29.81,10.0,South,9.2,-,N/A,Thunderstorm,Thunderstorm,180,2013-08-20 23:52:00
6:19 PM,80.6,59.0,48,30.08,10.0,NE,18.4,-,0.00,Rain-Thunderstorm,Light Thunderstorms and Rain,40,2013-08-21 00:19:00
6:52 PM,81.0,48.9,33,29.85,10.0,North,8.1,-,0.00,Thunderstorm,Thunderstorm,360,2013-08-21 00:52:00
7:37 PM,80.6,51.8,37,30.11,10.0,East,5.8,-,N/A,,Mostly Cloudy,100,2013-08-21 01:37:00
7:52 PM,80.1,54.0,40,29.87,10.0,ESE,5.8,-,N/A,,Mostly Cloudy,110,2013-08-21 01:52:00
8:52 PM,80.1,51.1,36,29.90,10.0,SSW,6.9,-,N/A,,Mostly Cloudy,210,2013-08-21 02:52:00
9:52 PM,79.0,52.0,39,29.92,10.0,South,8.1,-,N/A,,Mostly Cloudy,170,2013-08-21 03:52:00
10:52 PM,77.0,53.1,43,29.92,10.0,SE,5.8,-,N/A,,Overcast,130,2013-08-21 04:52:00
11:52 PM,77.0,52.0,42,29.91,10.0,Calm,Calm,-,N/A,,Overcast,0,2013-08-21 05:52:00